TimeEDT,TemperatureF,Dew PointF,Humidity,Sea Level PressureIn,VisibilityMPH,Wind Direction,Wind SpeedMPH,Gust SpeedMPH,PrecipitationIn,Events,Conditions,WindDirDegrees,DateUTC
12:53 AM,75.0,68.0,79,29.67,10.0,SW,8.1,-,N/A,,Partly Cloudy,220,2013-06-28 04:53:00
1:53 AM,73.0,66.9,81,29.68,10.0,North,3.5,-,N/A,,Clear,350,2013-06-28 05:53:00
2:53 AM,73.0,68.0,84,29.65,10.0,SW,6.9,-,N/A,,Scattered Clouds,230,2013-06-28 06:53:00
3:53 AM,73.0,66.9,81,29.64,10.0,WSW,5.8,-,N/A,,Clear,240,2013-06-28 07:53:00
4:53 AM,72.0,66.9,84,29.63,10.0,WSW,5.8,-,N/A,,Clear,240,2013-06-28 08:53:00
5:53 AM,71.1,66.9,87,29.64,10.0,West,6.9,-,N/A,,Clear,260,2013-06-28 09:53:00
6:53 AM,71.1,66.0,84,29.63,10.0,West,6.9,-,N/A,,Clear,260,2013-06-28 10:53:00
7:53 AM,72.0,64.9,78,29.64,10.0,West,9.2,-,N/A,,Clear,270,2013-06-28 11:53:00
8:53 AM,73.9,64.9,73,29.64,10.0,WNW,8.1,-,N/A,,Clear,290,2013-06-28 12:53:00
9:53 AM,75.9,66.0,71,29.64,10.0,WNW,9.2,-,N/A,,Clear,290,2013-06-28 13:53:00
10:53 AM,79.0,64.9,62,29.62,10.0,West,10.4,-,N/A,,Clear,280,2013-06-28 14:53:00
11:53 AM,81.0,66.0,60,29.63,10.0,West,9.2,-,N/A,,Partly Cloudy,270,2013-06-28 15:53:00
12:53 PM,82.0,61.0,49,29.62,10.0,WNW,15.0,24.2,N/A,,Partly Cloudy,290,2013-06-28 16:53:00
1:21 PM,82.4,60.8,48,29.64,10.0,West,15.0,25.3,N/A,Thunderstorm,Partly Cloudy,280,2013-06-28 17:21:00
1:36 PM,84.2,60.8,45,29.64,10.0,WNW,19.6,28.8,N/A,,Scattered Clouds,290,2013-06-28 17:36:00
1:53 PM,82.9,62.1,49,29.60,10.0,WNW,12.7,24.2,N/A,,Scattered Clouds,300,2013-06-28 17:53:00
2:53 PM,82.9,60.1,46,29.59,10.0,West,17.3,21.9,N/A,,Partly Cloudy,270,2013-06-28 18:53:00
3:53 PM,84.0,57.9,41,29.59,10.0,WNW,12.7,24.2,N/A,,Partly Cloudy,300,2013-06-28 19:53:00
4:40 PM,75.2,51.8,44,29.64,10.0,NNW,32.2,46.0,N/A,,Mostly Cloudy,330,2013-06-28 20:40:00
4:53 PM,69.1,55.9,63,29.63,10.0,NNW,26.5,41.4,0.00,Rain,Light Rain,330,2013-06-28 20:53:00
5:53 PM,69.1,61.0,75,29.62,10.0,NNW,5.8,-,0.01,,Mostly Cloudy,340,2013-06-28 21:53:00
6:05 PM,66.2,62.6,88,29.66,4.0,West,10.4,20.7,0.03,Rain-Thunderstorm,Thunderstorms and Rain,270,2013-06-28 22:05:00
6:29 PM,64.4,60.8,88,29.66,8.0,WSW,8.1,-,0.07,Rain,Light Rain,250,2013-06-28 22:29:00
6:53 PM,64.9,61.0,87,29.63,10.0,SSW,5.8,-,0.09,Rain,Light Rain,200,2013-06-28 22:53:00
7:53 PM,68.0,62.1,81,29.62,10.0,Calm,Calm,-,0.00,,Partly Cloudy,0,2013-06-28 23:53:00
8:53 PM,66.0,62.1,87,29.60,9.0,SSW,4.6,-,0.03,Rain,Light Rain,200,2013-06-29 00:53:00
9:53 PM,64.9,62.1,90,29.61,10.0,SSW,3.5,-,0.00,,Clear,210,2013-06-29 01:53:00
10:53 PM,64.9,62.1,90,29.61,10.0,Calm,Calm,-,N/A,,Clear,0,2013-06-29 02:53:00
11:53 PM,66.0,62.1,87,29.61,10.0,WNW,4.6,-,N/A,,Mostly Cloudy,290,2013-06-29 03:53:00